User: anonymous   Login
Location: ???????
(54.9996°N, 37.9529°E)
Time: 00:46:01
(UTC+00:00)
Language:

COSMOS 2441 - Orbit

View from above orbital plane
View from above orbital plane
View from above satellite
View from above satellite

Ground track
Ground track

The orbit data is extracted from the following two-line orbital elements,

1 33272U 08037A   24168.84112741  .00000348  00000-0  96059-4 0  9992
2 33272  98.2413 113.4541 0017577  68.2966 292.0100 14.52485960841998
Epoch (UTC): 16 June 2024 20:11:13
Eccentricity: 0.0017577
inclination: 98.2413°
perigee height: 705 km
apogee height: 730 km
right ascension of ascending node: 113.4541°
argument of perigee: 68.2966°
revolutions per day: 14.52485960
mean anomaly at epoch: 292.0100°
orbit number at epoch: 84199

The dashed part of the orbit path shows where the satellite is in the earth's shadow,  

DLR